Regional Weather Roundup
Issued by NWS

Home | Current Version | Previous Version | Text Only | Print | Product List | Glossary On
Versions: 1 2 3 4 5 6 7 8 9 10 11 12 13 14 15 16 17 18 19 20 21 22 23 24 25 26 27 28 29 30 31 32 33 34 35 36 37 38 39 40 41 42 43 44 45 46 47 48 49 50
000
ASUS43 KTOP 231259
RWRKS

WEATHER ROUNDUP FOR KANSAS
NATIONAL WEATHER SERVICE GOODLAND KS
800 AM CDT TUE SEP 23 2014

NOTE:  "FAIR" INDICATES FEW OR NO CLOUDS BELOW 12,000 FEET WITH NO
SIGNIFICANT WEATHER AND/OR OBSTRUCTIONS TO VISIBILITY.

KSZ001>006-013>018-027>032-041>047-231400-
NORTHWEST KANSAS

CITY           SKY/WX    TMP DP  RH WIND       PRES   REMARKS
GOODLAND       PTCLDY    56  55  97 S9        30.07S
HILL CITY      CLOUDY    60  53  77 S10       30.08R
RUSSELL        CLOUDY    58  52  80 SE22G29   30.08F
$$

KSZ061>065-074>080-084>089-231400-
SOUTHWEST KANSAS

CITY           SKY/WX    TMP DP  RH WIND       PRES   REMARKS
DODGE CITY     MOCLDY    63  47  55 S15       30.12R
ELKHART          N/A     65  56  73 S16         N/A
GARDEN CITY    CLEAR     62  51  67 S14       30.07S
GREAT BEND     CLOUDY    57  52  82 SE13      30.13F
LIBERAL        CLEAR     63  48  59 S15       30.13R
$$

KSZ066>073-081>083-090>101-231400-
SOUTHEAST KANSAS

CITY           SKY/WX    TMP DP  RH WIND       PRES   REMARKS
CHANUTE        PTCLDY    56  53  90 SE6       30.24R
COFFEYVILLE    PTCLDY    56  54  93 SE5       30.23R
HUTCHINSON     CLOUDY    60  53  77 SE3       30.20R
NEWTON         CLOUDY    57  48  72 SE7       30.22R
PARSONS        PTCLDY    58  54  86 SE3       30.25R
WICHITA INTL   MOCLDY    60  52  74 S7        30.19R
WICHITA JABRA  MOCLDY    59  52  77 S6        30.20R
WINFIELD       PTCLDY    57  53  86 SE8       30.21S
$$

KSZ007>012-019>026-033>040-048>060-102>105-231400-
NORTHEAST KANSAS

CITY           SKY/WX    TMP DP  RH WIND       PRES   REMARKS
CONCORDIA      CLOUDY    58  56  93 S9        30.12R
EMPORIA        MOCLDY    54  52  93 S5        30.23R
LAWRENCE       MOCLDY    55  51  86 E3        30.24S
MANHATTAN      CLOUDY    60  53  77 S6        30.18F
OLATHE IND     MOCLDY    56  51  84 S6        30.25R
OLATHE EXE     MOCLDY    55  50  83 S5        30.24R
SALINA         LGT RAIN  59  56  89 SE9       30.18F
TOPEKA BILLARD CLOUDY    58  53  84 CALM      30.24R
TOPEKA FORBES  CLOUDY    57  51  80 SE3       30.23S
$$



USA.gov is the U.S. government's official web portal to all federal, state and local government web resources and services.